Station Historical Data
Daily Summary for October 14, 2017 Units:  English    Metric   Both
Next Day »
Daily Weekly Monthly Yearly Custom
  High: Low: Average:
Temperature: 67.5 °F 49.4 °F 57.9 °F
Dew Point: 35.7 °F 20.8 °F 29 °F
Humidity: 44% 25% 33%
Wind Speed: 14.0mph 0.0mph 1.9mph
Wind Gust: 20.0mph - -
Wind- - ESE
Pressure: 30.17 in 30.11 in -
Precipitation: 0.00 in    
Historical Graphs
 
 
Tabular Data for October 14, 2017
Time Temperature Dew Point Pressure Wind Wind Speed Wind Gust Humidity Rainfall Rate (Hourly) solar Conditions
00:02 51.9 °F 26.5 °F 30.15 in East 2.0 mph 7.0 mph 37% 0.00 in 0.00 W/m2
00:07 51.8 °F 26.4 °F 30.15 in East 6.0 mph 6.0 mph 37% 0.00 in 0.00 W/m2
00:12 51.6 °F 26.8 °F 30.15 in Calm   5.0 mph 38% 0.00 in 0.00 W/m2
00:17 51.5 °F 26.8 °F 30.15 in Calm   4.0 mph 38% 0.00 in 0.00 W/m2
00:22 51.4 °F 26.7 °F 30.14 in East 2.0 mph 5.0 mph 38% 0.00 in 0.00 W/m2
00:27 51.3 °F 26.6 °F 30.14 in East 4.0 mph 6.0 mph 38% 0.00 in 0.00 W/m2
00:33 51.2 °F 26.5 °F 30.14 in Calm   4.0 mph 38% 0.00 in 0.00 W/m2
00:38 51.2 °F 26.5 °F 30.14 in East 1.0 mph 6.0 mph 38% 0.00 in 0.00 W/m2
00:43 51.0 °F 26.3 °F 30.14 in East 1.0 mph 6.0 mph 38% 0.00 in 0.00 W/m2
00:48 50.9 °F 26.2 °F 30.14 in Calm   6.0 mph 38% 0.00 in 0.00 W/m2
00:53 50.8 °F 26.1 °F 30.14 in Calm   6.0 mph 38% 0.00 in 0.00 W/m2
00:58 50.8 °F 26.1 °F 30.14 in Calm   7.0 mph 38% 0.00 in 0.00 W/m2
01:03 50.7 °F 26.0 °F 30.14 in East 4.0 mph 8.0 mph 38% 0.00 in 0.00 W/m2
01:08 50.6 °F 26.0 °F 30.14 in East 5.0 mph 6.0 mph 38% 0.00 in 0.00 W/m2
01:13 50.6 °F 26.0 °F 30.14 in Calm   7.0 mph 38% 0.00 in 0.00 W/m2
01:18 50.5 °F 25.9 °F 30.13 in Calm   7.0 mph 38% 0.00 in 0.00 W/m2
01:23 50.5 °F 25.9 °F 30.13 in Calm   5.0 mph 38% 0.00 in 0.00 W/m2
01:28 50.5 °F 25.9 °F 30.14 in East 2.0 mph 7.0 mph 38% 0.00 in 0.00 W/m2
01:33 50.5 °F 25.9 °F 30.13 in East 6.0 mph 6.0 mph 38% 0.00 in 0.00 W/m2
01:38 50.5 °F 25.9 °F 30.13 in Calm   6.0 mph 38% 0.00 in 0.00 W/m2
01:43 50.5 °F 25.2 °F 30.13 in East 5.0 mph 9.0 mph 37% 0.00 in 0.00 W/m2
01:48 50.4 °F 25.8 °F 30.13 in Calm   6.0 mph 38% 0.00 in 0.00 W/m2
01:53 50.4 °F 25.8 °F 30.13 in Calm   8.0 mph 38% 0.00 in 0.00 W/m2
01:58 50.3 °F 25.7 °F 30.13 in Calm   8.0 mph 38% 0.00 in 0.00 W/m2
02:03 50.2 °F 25.6 °F 30.13 in East 5.0 mph 7.0 mph 38% 0.00 in 0.00 W/m2
02:08 50.1 °F 25.5 °F 30.13 in Calm   6.0 mph 38% 0.00 in 0.00 W/m2
02:13 50.1 °F 24.9 °F 30.13 in East 5.0 mph 7.0 mph 37% 0.00 in 0.00 W/m2
02:18 50.0 °F 24.8 °F 30.13 in ENE 4.0 mph 8.0 mph 37% 0.00 in 0.00 W/m2
02:23 49.9 °F 24.7 °F 30.12 in ENE 4.0 mph 7.0 mph 37% 0.00 in 0.00 W/m2
02:28 49.9 °F 24.0 °F 30.12 in ENE 4.0 mph 8.0 mph 36% 0.00 in 0.00 W/m2
02:33 50.0 °F 24.1 °F 30.12 in Calm   8.0 mph 36% 0.00 in 0.00 W/m2
02:38 50.0 °F 24.1 °F 30.13 in ENE 3.0 mph 5.0 mph 36% 0.00 in 0.00 W/m2
02:43 50.0 °F 24.1 °F 30.12 in ENE 4.0 mph 5.0 mph 36% 0.00 in 0.00 W/m2
02:48 50.0 °F 24.1 °F 30.12 in ENE 6.0 mph 8.0 mph 36% 0.00 in 0.00 W/m2
02:53 50.0 °F 23.4 °F 30.12 in ENE 4.0 mph 7.0 mph 35% 0.00 in 0.00 W/m2
02:58 49.9 °F 24.0 °F 30.12 in ENE 8.0 mph 10.0 mph 36% 0.00 in 0.00 W/m2
03:04 49.8 °F 23.9 °F 30.12 in Calm   11.0 mph 36% 0.00 in 0.00 W/m2
03:09 49.8 °F 23.9 °F 30.12 in Calm   11.0 mph 36% 0.00 in 0.00 W/m2
03:14 49.7 °F 23.2 °F 30.11 in East 4.0 mph 12.0 mph 35% 0.00 in 0.00 W/m2
03:19 49.7 °F 23.9 °F 30.12 in East 5.0 mph 8.0 mph 36% 0.00 in 0.00 W/m2
03:24 49.7 °F 23.2 °F 30.12 in East 5.0 mph 11.0 mph 35% 0.00 in 0.00 W/m2
03:29 49.6 °F 23.1 °F 30.11 in East 2.0 mph 9.0 mph 35% 0.00 in 0.00 W/m2
03:34 49.5 °F 23.0 °F 30.11 in East 7.0 mph 11.0 mph 35% 0.00 in 0.00 W/m2
03:39 49.4 °F 22.9 °F 30.11 in East 6.0 mph 7.0 mph 35% 0.00 in 0.00 W/m2
03:40 49.4 °F 22.9 °F 30.11 in East 5.0 mph 7.0 mph 35% 0.00 in 0.00 W/m2
03:45 49.4 °F 22.9 °F 30.11 in East 2.0 mph 8.0 mph 35% 0.00 in 0.00 W/m2
03:50 49.4 °F 22.9 °F 30.11 in Calm   12.0 mph 35% 0.00 in 0.00 W/m2
03:55 49.5 °F 22.3 °F 30.11 in East 12.0 mph 14.0 mph 34% 0.00 in 0.00 W/m2
04:00 49.5 °F 21.6 °F 30.11 in East 2.0 mph 12.0 mph 33% 0.00 in 0.00 W/m2
04:05 49.6 °F 21.7 °F 30.11 in ESE 5.0 mph 8.0 mph 33% 0.00 in 0.00 W/m2
04:10 49.7 °F 21.8 °F 30.11 in Calm   12.0 mph 33% 0.00 in 0.00 W/m2
04:15 49.9 °F 21.2 °F 30.11 in ESE 6.0 mph 9.0 mph 32% 0.00 in 0.00 W/m2
04:20 50.0 °F 21.3 °F 30.11 in ESE 1.0 mph 11.0 mph 32% 0.00 in 0.00 W/m2
04:25 50.2 °F 21.5 °F 30.11 in ESE 1.0 mph 8.0 mph 32% 0.00 in 0.00 W/m2
04:30 50.4 °F 20.9 °F 30.11 in ESE 5.0 mph 12.0 mph 31% 0.00 in 0.00 W/m2
04:35 50.5 °F 21.8 °F 30.11 in East 11.0 mph 11.0 mph 32% 0.00 in 0.00 W/m2
04:40 50.6 °F 21.9 °F 30.11 in East 7.0 mph 14.0 mph 32% 0.00 in 0.00 W/m2
04:45 50.8 °F 21.3 °F 30.11 in ESE 4.0 mph 12.0 mph 31% 0.00 in 0.00 W/m2
04:50 50.9 °F 21.4 °F 30.11 in ESE 2.0 mph 15.0 mph 31% 0.00 in 0.00 W/m2
04:55 50.9 °F 21.4 °F 30.11 in ESE 11.0 mph 15.0 mph 31% 0.00 in 0.00 W/m2
05:00 51.0 °F 21.5 °F 30.11 in ESE 1.0 mph 15.0 mph 31% 0.00 in 0.00 W/m2
05:05 51.1 °F 21.5 °F 30.11 in ESE 2.0 mph 15.0 mph 31% 0.00 in 0.00 W/m2
05:10 51.2 °F 20.9 °F 30.11 in ESE 2.0 mph 14.0 mph 30% 0.00 in 0.00 W/m2
05:15 51.4 °F 21.0 °F 30.11 in Calm   12.0 mph 30% 0.00 in 0.00 W/m2
05:20 51.6 °F 21.2 °F 30.11 in East 5.0 mph 13.0 mph 30% 0.00 in 0.00 W/m2
05:25 51.8 °F 21.4 °F 30.11 in ESE 1.0 mph 13.0 mph 30% 0.00 in 0.00 W/m2
05:30 51.9 °F 21.5 °F 30.11 in East 5.0 mph 14.0 mph 30% 0.00 in 0.00 W/m2
05:35 52.1 °F 20.8 °F 30.11 in ESE 5.0 mph 13.0 mph 29% 0.00 in 0.00 W/m2
05:40 52.2 °F 21.7 °F 30.11 in East 4.0 mph 16.0 mph 30% 0.00 in 0.00 W/m2
05:45 52.3 °F 21.8 °F 30.11 in ESE 14.0 mph 17.0 mph 30% 0.00 in 0.00 W/m2
05:50 52.5 °F 22.0 °F 30.11 in East 5.0 mph 19.0 mph 30% 0.00 in 0.00 W/m2
05:55 52.7 °F 22.2 °F 30.11 in ESE 7.0 mph 18.0 mph 30% 0.00 in 0.00 W/m2
06:00 52.8 °F 22.2 °F 30.11 in SE 7.0 mph 15.0 mph 30% 0.00 in 0.00 W/m2
06:05 53.0 °F 22.4 °F 30.11 in ESE 2.0 mph 20.0 mph 30% 0.00 in 0.00 W/m2
06:10 53.2 °F 22.6 °F 30.11 in ESE 5.0 mph 14.0 mph 30% 0.00 in 0.00 W/m2
06:15 53.3 °F 22.7 °F 30.11 in East 5.0 mph 14.0 mph 30% 0.00 in 0.00 W/m2
06:20 53.5 °F 22.9 °F 30.11 in East 4.0 mph 13.0 mph 30% 0.00 in 0.00 W/m2
06:25 53.7 °F 23.0 °F 30.11 in Calm   15.0 mph 30% 0.00 in 0.00 W/m2
06:30 53.8 °F 22.3 °F 30.11 in ESE 7.0 mph 12.0 mph 29% 0.00 in 0.00 W/m2
06:35 53.9 °F 23.2 °F 30.11 in ESE 5.0 mph 12.0 mph 30% 0.00 in 0.00 W/m2
06:40 54.0 °F 23.3 °F 30.11 in SE 11.0 mph 19.0 mph 30% 0.00 in 0.00 W/m2
06:45 54.0 °F 22.5 °F 30.11 in ESE 2.0 mph 16.0 mph 29% 0.00 in 0.00 W/m2
06:50 54.0 °F 22.5 °F 30.11 in ESE 13.0 mph 14.0 mph 29% 0.00 in 0.00 W/m2
06:55 54.0 °F 22.5 °F 30.11 in ESE 1.0 mph 18.0 mph 29% 0.00 in 0.00 W/m2
07:00 54.1 °F 22.6 °F 30.11 in ESE 6.0 mph 14.0 mph 29% 0.00 in 0.00 W/m2
07:05 54.1 °F 22.6 °F 30.11 in Calm   16.0 mph 29% 0.00 in 0.00 W/m2
07:10 54.2 °F 22.6 °F 30.11 in Calm   16.0 mph 29% 0.00 in 5.00 W/m2
07:15 54.2 °F 22.6 °F 30.12 in ESE 4.0 mph 16.0 mph 29% 0.00 in 7.00 W/m2
07:17 54.2 °F 22.6 °F 30.12 in ESE 1.0 mph 12.0 mph 29% 0.00 in 9.00 W/m2
07:22 54.3 °F 22.7 °F 30.11 in ESE 5.0 mph 11.0 mph 29% 0.00 in 11.00 W/m2
07:27 54.3 °F 23.5 °F 30.11 in ESE 8.0 mph 16.0 mph 30% 0.00 in 14.00 W/m2
07:32 54.3 °F 22.7 °F 30.12 in ESE 6.0 mph 8.0 mph 29% 0.00 in 16.00 W/m2
07:37 54.2 °F 23.5 °F 30.12 in ESE 11.0 mph 14.0 mph 30% 0.00 in 21.00 W/m2
07:42 54.2 °F 23.5 °F 30.12 in East 1.0 mph 15.0 mph 30% 0.00 in 28.00 W/m2
07:47 54.2 °F 23.5 °F 30.12 in ESE 7.0 mph 14.0 mph 30% 0.00 in 39.00 W/m2
07:48 54.2 °F 23.5 °F 30.12 in East 8.0 mph 14.0 mph 30% 0.00 in 49.00 W/m2
07:53 54.2 °F 23.5 °F 30.12 in Calm   12.0 mph 30% 0.00 in 63.00 W/m2
07:58 54.3 °F 24.3 °F 30.12 in ESE 7.0 mph 13.0 mph 31% 0.00 in 79.00 W/m2
08:03 54.5 °F 25.3 °F 30.12 in ESE 4.0 mph 11.0 mph 32% 0.00 in 93.00 W/m2
08:08 54.7 °F 25.4 °F 30.12 in ESE 4.0 mph 13.0 mph 32% 0.00 in 109.00 W/m2
08:13 55.0 °F 25.7 °F 30.12 in Calm   13.0 mph 32% 0.00 in 132.00 W/m2
08:18 55.2 °F 25.1 °F 30.12 in ESE 6.0 mph 11.0 mph 31% 0.00 in 141.00 W/m2
08:23 55.5 °F 24.6 °F 30.12 in ESE 9.0 mph 12.0 mph 30% 0.00 in 178.00 W/m2
08:28 55.8 °F 24.9 °F 30.12 in East 2.0 mph 8.0 mph 30% 0.00 in 193.00 W/m2
08:33 56.1 °F 25.9 °F 30.13 in ESE 4.0 mph 11.0 mph 31% 0.00 in 214.00 W/m2
08:38 56.3 °F 25.3 °F 30.13 in Calm   9.0 mph 30% 0.00 in 237.00 W/m2
08:43 56.4 °F 25.4 °F 30.13 in Calm   7.0 mph 30% 0.00 in 258.00 W/m2
08:48 56.7 °F 26.4 °F 30.13 in Calm   8.0 mph 31% 0.00 in 279.00 W/m2
08:54 56.8 °F 25.7 °F 30.12 in Calm   9.0 mph 30% 0.00 in 299.00 W/m2
08:59 57.0 °F 26.7 °F 30.13 in Calm   1.0 mph 31% 0.00 in 318.00 W/m2
09:04 57.2 °F 27.6 °F 30.13 in Calm   4.0 mph 32% 0.00 in 332.00 W/m2
09:09 57.3 °F 27.7 °F 30.13 in Calm     32% 0.00 in 350.00 W/m2
09:14 57.3 °F 29.2 °F 30.13 in ENE 5.0 mph 5.0 mph 34% 0.00 in 366.00 W/m2
09:19 57.5 °F 29.4 °F 30.13 in Calm   8.0 mph 34% 0.00 in 378.00 W/m2
09:24 57.6 °F 28.0 °F 30.13 in Calm   5.0 mph 32% 0.00 in 394.00 W/m2
09:29 57.8 °F 29.6 °F 30.14 in Calm     34% 0.00 in 408.00 W/m2
09:34 58.0 °F 29.8 °F 30.14 in Calm   3.0 mph 34% 0.00 in 422.00 W/m2
09:39 58.2 °F 30.0 °F 30.14 in Calm     34% 0.00 in 436.00 W/m2
09:44 58.5 °F 31.0 °F 30.14 in Calm   3.0 mph 35% 0.00 in 450.00 W/m2
09:49 58.8 °F 31.2 °F 30.14 in NE 2.0 mph 4.0 mph 35% 0.00 in 464.00 W/m2
09:54 58.9 °F 30.6 °F 30.14 in Calm   2.0 mph 34% 0.00 in 476.00 W/m2
09:59 59.0 °F 30.7 °F 30.14 in Calm     34% 0.00 in 489.00 W/m2
10:04 59.1 °F 31.5 °F 30.14 in Calm     35% 0.00 in 503.00 W/m2
10:09 59.1 °F 32.9 °F 30.14 in Calm     37% 0.00 in 513.00 W/m2
10:14 58.9 °F 32.7 °F 30.14 in NE 1.0 mph 2.0 mph 37% 0.00 in 524.00 W/m2
10:19 58.9 °F 32.7 °F 30.14 in Calm     37% 0.00 in 536.00 W/m2
10:24 58.9 °F 32.7 °F 30.14 in Calm   1.0 mph 37% 0.00 in 548.00 W/m2
10:29 59.2 °F 32.3 °F 30.14 in Calm     36% 0.00 in 559.00 W/m2
10:34 59.6 °F 32.6 °F 30.14 in Calm   3.0 mph 36% 0.00 in 571.00 W/m2
10:39 59.9 °F 31.5 °F 30.14 in Calm     34% 0.00 in 580.00 W/m2
10:44 60.3 °F 31.8 °F 30.14 in Calm     34% 0.00 in 591.00 W/m2
10:49 60.7 °F 31.5 °F 30.14 in Calm   5.0 mph 33% 0.00 in 599.00 W/m2
10:54 61.1 °F 31.0 °F 30.14 in NNE 2.0 mph 4.0 mph 32% 0.00 in 608.00 W/m2
10:59 61.7 °F 32.3 °F 30.14 in Calm   6.0 mph 33% 0.00 in 617.00 W/m2
11:04 62.2 °F 31.2 °F 30.14 in Calm   4.0 mph 31% 0.00 in 626.00 W/m2
11:09 62.7 °F 31.6 °F 30.14 in Calm   5.0 mph 31% 0.00 in 633.00 W/m2
11:14 63.1 °F 29.5 °F 30.14 in Calm   5.0 mph 28% 0.00 in 643.00 W/m2
11:19 63.4 °F 29.8 °F 30.15 in Calm   4.0 mph 28% 0.00 in 649.00 W/m2
11:24 63.6 °F 29.9 °F 30.15 in NW 2.0 mph 4.0 mph 28% 0.00 in 654.00 W/m2
11:29 63.8 °F 30.1 °F 30.15 in NW 5.0 mph 6.0 mph 28% 0.00 in 661.00 W/m2
11:35 64.0 °F 31.1 °F 30.15 in Calm   4.0 mph 29% 0.00 in 668.00 W/m2
11:40 64.0 °F 31.1 °F 30.15 in Calm   3.0 mph 29% 0.00 in 671.00 W/m2
11:45 64.0 °F 32.0 °F 30.15 in Calm   3.0 mph 30% 0.00 in 677.00 W/m2
11:50 64.0 °F 31.1 °F 30.15 in WNW 1.0 mph 3.0 mph 29% 0.00 in 682.00 W/m2
11:55 64.0 °F 32.0 °F 30.14 in Calm   2.0 mph 30% 0.00 in 686.00 W/m2
12:00 64.1 °F 30.4 °F 30.15 in Calm   3.0 mph 28% 0.00 in 691.00 W/m2
12:05 64.1 °F 30.4 °F 30.15 in Calm   7.0 mph 28% 0.00 in 689.00 W/m2
12:10 64.1 °F 31.2 °F 30.15 in NW 1.0 mph 3.0 mph 29% 0.00 in 698.00 W/m2
12:15 64.1 °F 30.4 °F 30.15 in Calm   4.0 mph 28% 0.00 in 694.00 W/m2
12:20 64.2 °F 30.4 °F 30.15 in Calm   3.0 mph 28% 0.00 in 694.00 W/m2
12:25 64.2 °F 30.4 °F 30.15 in Calm   4.0 mph 28% 0.00 in 698.00 W/m2
12:30 64.2 °F 30.4 °F 30.15 in WNW 1.0 mph 5.0 mph 28% 0.00 in 703.00 W/m2
12:35 64.3 °F 30.5 °F 30.14 in Calm   4.0 mph 28% 0.00 in 700.00 W/m2
12:40 64.4 °F 30.6 °F 30.14 in Calm   3.0 mph 28% 0.00 in 705.00 W/m2
12:45 64.5 °F 29.8 °F 30.14 in WNW 1.0 mph 5.0 mph 27% 0.00 in 701.00 W/m2
12:50 64.6 °F 29.9 °F 30.14 in Calm   4.0 mph 27% 0.00 in 703.00 W/m2
12:55 64.7 °F 30.0 °F 30.14 in Calm   5.0 mph 27% 0.00 in 700.00 W/m2
13:00 64.9 °F 30.1 °F 30.14 in WNW 4.0 mph 6.0 mph 27% 0.00 in 700.00 W/m2
13:05 64.9 °F 29.2 °F 30.14 in Calm   6.0 mph 26% 0.00 in 698.00 W/m2
13:10 65.0 °F 29.3 °F 30.14 in West 2.0 mph 6.0 mph 26% 0.00 in 696.00 W/m2
13:15 65.2 °F 29.5 °F 30.14 in Calm   6.0 mph 26% 0.00 in 701.00 W/m2
13:20 65.4 °F 29.6 °F 30.14 in WSW 3.0 mph 7.0 mph 26% 0.00 in 693.00 W/m2
13:25 65.5 °F 29.7 °F 30.14 in Calm   5.0 mph 26% 0.00 in 689.00 W/m2
13:30 65.7 °F 29.9 °F 30.14 in WSW 1.0 mph 5.0 mph 26% 0.00 in 686.00 W/m2
13:35 65.8 °F 29.0 °F 30.14 in Calm   5.0 mph 25% 0.00 in 682.00 W/m2
13:40 65.9 °F 29.1 °F 30.14 in West 3.0 mph 5.0 mph 25% 0.00 in 677.00 W/m2
13:45 66.0 °F 29.2 °F 30.14 in WNW 2.0 mph 7.0 mph 25% 0.00 in 670.00 W/m2
13:50 65.9 °F 29.1 °F 30.14 in Calm   5.0 mph 25% 0.00 in 666.00 W/m2
13:55 66.0 °F 29.2 °F 30.13 in NW 2.0 mph 6.0 mph 25% 0.00 in 663.00 W/m2
14:00 66.2 °F 29.4 °F 30.13 in Calm   4.0 mph 25% 0.00 in 656.00 W/m2
14:05 66.3 °F 29.5 °F 30.13 in Calm   5.0 mph 25% 0.00 in 649.00 W/m2
14:10 66.3 °F 30.4 °F 30.13 in West 3.0 mph 6.0 mph 26% 0.00 in 642.00 W/m2
14:15 66.5 °F 30.6 °F 30.13 in Calm   6.0 mph 26% 0.00 in 635.00 W/m2
14:20 66.6 °F 30.7 °F 30.13 in Calm   6.0 mph 26% 0.00 in 624.00 W/m2
14:25 66.8 °F 30.8 °F 30.13 in Calm   5.0 mph 26% 0.00 in 617.00 W/m2
14:30 67.0 °F 30.0 °F 30.13 in Calm   4.0 mph 25% 0.00 in 610.00 W/m2
14:35 67.1 °F 31.1 °F 30.13 in Calm   3.0 mph 26% 0.00 in 599.00 W/m2
14:40 67.1 °F 32.0 °F 30.12 in Calm   1.0 mph 27% 0.00 in 591.00 W/m2
14:42 67.2 °F 32.1 °F 30.12 in Calm     27% 0.00 in 587.00 W/m2
14:47 67.3 °F 31.3 °F 30.12 in Calm   2.0 mph 26% 0.00 in 578.00 W/m2
14:52 67.3 °F 31.3 °F 30.12 in Calm   2.0 mph 26% 0.00 in 571.00 W/m2
14:57 67.4 °F 31.4 °F 30.12 in Calm     26% 0.00 in 559.00 W/m2
15:02 67.4 °F 31.4 °F 30.12 in Calm     26% 0.00 in 550.00 W/m2
15:07 67.3 °F 31.3 °F 30.12 in Calm   1.0 mph 26% 0.00 in 540.00 W/m2
15:12 67.4 °F 31.4 °F 30.12 in Calm   3.0 mph 26% 0.00 in 527.00 W/m2
15:17 67.4 °F 31.4 °F 30.12 in Calm     26% 0.00 in 515.00 W/m2
15:22 67.4 °F 32.3 °F 30.12 in WNW 3.0 mph 5.0 mph 27% 0.00 in 503.00 W/m2
15:27 67.5 °F 32.4 °F 30.12 in Calm   4.0 mph 27% 0.00 in 489.00 W/m2
15:32 67.5 °F 32.4 °F 30.12 in Calm   1.0 mph 27% 0.00 in 476.00 W/m2
15:33 67.5 °F 32.4 °F 30.12 in Calm   1.0 mph 27% 0.00 in 476.00 W/m2
15:38 67.5 °F 32.4 °F 30.12 in Calm   3.0 mph 27% 0.00 in 462.00 W/m2
15:43 67.4 °F 32.3 °F 30.12 in Calm     27% 0.00 in 452.00 W/m2
15:48 67.3 °F 32.2 °F 30.12 in Calm   3.0 mph 27% 0.00 in 438.00 W/m2
15:53 67.2 °F 32.1 °F 30.12 in Calm   4.0 mph 27% 0.00 in 425.00 W/m2
15:58 67.2 °F 33.0 °F 30.12 in Calm   3.0 mph 28% 0.00 in 410.00 W/m2
16:03 67.2 °F 33.0 °F 30.12 in Calm   4.0 mph 28% 0.00 in 396.00 W/m2
16:08 67.1 °F 32.9 °F 30.12 in Calm   3.0 mph 28% 0.00 in 385.00 W/m2
16:13 67.0 °F 32.8 °F 30.12 in West 3.0 mph 3.0 mph 28% 0.00 in 371.00 W/m2
16:18 67.0 °F 32.8 °F 30.12 in Calm   4.0 mph 28% 0.00 in 357.00 W/m2
16:23 66.9 °F 32.8 °F 30.12 in West 2.0 mph 4.0 mph 28% 0.00 in 345.00 W/m2
16:28 66.8 °F 32.7 °F 30.12 in Calm   2.0 mph 28% 0.00 in 332.00 W/m2
16:33 66.7 °F 33.5 °F 30.12 in Calm   3.0 mph 29% 0.00 in 320.00 W/m2
16:38 66.6 °F 33.4 °F 30.12 in Calm   3.0 mph 29% 0.00 in 308.00 W/m2
16:43 66.5 °F 32.4 °F 30.12 in Calm   4.0 mph 28% 0.00 in 295.00 W/m2
16:48 66.4 °F 32.3 °F 30.12 in Calm     28% 0.00 in 281.00 W/m2
16:49 66.4 °F 32.3 °F 30.12 in Calm     28% 0.00 in 279.00 W/m2
16:54 66.4 °F 34.0 °F 30.12 in Calm     30% 0.00 in 267.00 W/m2
16:59 66.3 °F 33.1 °F 30.12 in Calm     29% 0.00 in 246.00 W/m2
17:04 66.2 °F 33.0 °F 30.12 in Calm     29% 0.00 in 227.00 W/m2
17:09 66.1 °F 33.0 °F 30.12 in Calm   4.0 mph 29% 0.00 in 193.00 W/m2
17:14 66.0 °F 32.9 °F 30.12 in Calm   4.0 mph 29% 0.00 in 139.00 W/m2
17:19 66.0 °F 33.7 °F 30.12 in Calm     30% 0.00 in 121.00 W/m2
17:24 65.9 °F 34.4 °F 30.12 in Calm     31% 0.00 in 120.00 W/m2
17:29 65.7 °F 34.3 °F 30.11 in Calm     31% 0.00 in 116.00 W/m2
17:34 65.6 °F 34.2 °F 30.12 in Calm     31% 0.00 in 114.00 W/m2
17:39 65.5 °F 34.9 °F 30.12 in Calm     32% 0.00 in 93.00 W/m2
17:44 65.4 °F 34.8 °F 30.12 in Calm   1.0 mph 32% 0.00 in 76.00 W/m2
17:49 65.3 °F 35.5 °F 30.12 in Calm     33% 0.00 in 60.00 W/m2
17:54 65.0 °F 35.2 °F 30.12 in Calm     33% 0.00 in 44.00 W/m2
17:59 64.7 °F 35.7 °F 30.12 in Calm     34% 0.00 in 33.00 W/m2
18:04 64.4 °F 35.5 °F 30.12 in Calm     34% 0.00 in 25.00 W/m2
18:09 64.1 °F 35.2 °F 30.12 in Calm     34% 0.00 in 19.00 W/m2
18:14 63.8 °F 34.9 °F 30.12 in Calm     34% 0.00 in 14.00 W/m2
18:19 63.6 °F 35.5 °F 30.12 in Calm   1.0 mph 35% 0.00 in 11.00 W/m2
18:24 63.3 °F 35.2 °F 30.12 in Calm     35% 0.00 in 7.00 W/m2
18:29 62.7 °F 35.4 °F 30.12 in Calm     36% 0.00 in 0.00 W/m2
18:34 62.2 °F 34.9 °F 30.13 in Calm     36% 0.00 in 0.00 W/m2
18:39 61.9 °F 34.7 °F 30.13 in Calm     36% 0.00 in 0.00 W/m2
18:44 61.4 °F 34.2 °F 30.13 in Calm     36% 0.00 in 0.00 W/m2
18:49 61.1 °F 34.7 °F 30.14 in Calm     37% 0.00 in 0.00 W/m2
18:54 60.7 °F 34.3 °F 30.14 in Calm     37% 0.00 in 0.00 W/m2
19:00 60.3 °F 33.9 °F 30.14 in Calm     37% 0.00 in 0.00 W/m2
19:05 59.9 °F 33.6 °F 30.14 in Calm     37% 0.00 in 0.00 W/m2
19:06 59.8 °F 33.5 °F 30.14 in Calm     37% 0.00 in 0.00 W/m2
19:11 59.5 °F 33.9 °F 30.14 in Calm     38% 0.00 in 0.00 W/m2
19:16 59.1 °F 33.5 °F 30.14 in Calm     38% 0.00 in 0.00 W/m2
19:21 58.7 °F 33.2 °F 30.14 in Calm     38% 0.00 in 0.00 W/m2
19:26 58.3 °F 33.5 °F 30.15 in Calm     39% 0.00 in 0.00 W/m2
19:31 57.9 °F 33.1 °F 30.15 in Calm     39% 0.00 in 0.00 W/m2
19:36 57.5 °F 33.4 °F 30.15 in Calm     40% 0.00 in 0.00 W/m2
19:41 57.1 °F 33.0 °F 30.15 in Calm     40% 0.00 in 0.00 W/m2
19:46 56.8 °F 32.8 °F 30.15 in Calm     40% 0.00 in 0.00 W/m2
19:51 56.4 °F 33.0 °F 30.15 in Calm     41% 0.00 in 0.00 W/m2
19:56 56.1 °F 32.7 °F 30.15 in Calm     41% 0.00 in 0.00 W/m2
20:01 55.8 °F 32.5 °F 30.15 in Calm     41% 0.00 in 0.00 W/m2
20:06 55.6 °F 32.3 °F 30.15 in Calm     41% 0.00 in 0.00 W/m2
20:11 55.5 °F 32.2 °F 30.16 in Calm     41% 0.00 in 0.00 W/m2
20:12 55.4 °F 32.1 °F 30.16 in Calm     41% 0.00 in 0.00 W/m2
20:17 55.2 °F 32.5 °F 30.16 in Calm     42% 0.00 in 0.00 W/m2
20:22 55.0 °F 32.3 °F 30.16 in Calm     42% 0.00 in 0.00 W/m2
20:27 54.7 °F 32.1 °F 30.16 in Calm     42% 0.00 in 0.00 W/m2
20:32 54.5 °F 32.5 °F 30.16 in Calm     43% 0.00 in 0.00 W/m2
20:37 54.3 °F 32.3 °F 30.16 in Calm     43% 0.00 in 0.00 W/m2
20:47 54.1 °F 32.1 °F 30.16 in Calm     43% 0.00 in 0.00 W/m2
20:52 54.0 °F 32.6 °F 30.16 in Calm     44% 0.00 in 0.00 W/m2
20:57 54.0 °F 32.6 °F 30.16 in Calm     44% 0.00 in 0.00 W/m2
21:02 54.0 °F 32.6 °F 30.16 in Calm   4.0 mph 44% 0.00 in 0.00 W/m2
21:07 54.0 °F 32.6 °F 30.16 in NE 1.0 mph 5.0 mph 44% 0.00 in 0.00 W/m2
21:12 54.1 °F 32.7 °F 30.16 in NE 2.0 mph 3.0 mph 44% 0.00 in 0.00 W/m2
21:17 54.1 °F 32.7 °F 30.16 in NE 2.0 mph 4.0 mph 44% 0.00 in 0.00 W/m2
21:22 54.3 °F 32.9 °F 30.16 in ENE 2.0 mph 6.0 mph 44% 0.00 in 0.00 W/m2
21:27 54.4 °F 33.0 °F 30.16 in East 5.0 mph 7.0 mph 44% 0.00 in 0.00 W/m2
21:28 54.4 °F 33.0 °F 30.15 in East 2.0 mph 7.0 mph 44% 0.00 in 0.00 W/m2
21:33 54.5 °F 33.0 °F 30.16 in ESE 2.0 mph 8.0 mph 44% 0.00 in 0.00 W/m2
21:38 54.5 °F 33.0 °F 30.16 in ESE 4.0 mph 13.0 mph 44% 0.00 in 0.00 W/m2
21:43 54.6 °F 33.1 °F 30.16 in East 2.0 mph 13.0 mph 44% 0.00 in 0.00 W/m2
21:48 54.7 °F 33.2 °F 30.16 in Calm   11.0 mph 44% 0.00 in 0.00 W/m2
21:53 54.8 °F 33.3 °F 30.16 in ESE 2.0 mph 12.0 mph 44% 0.00 in 0.00 W/m2
21:58 55.0 °F 32.9 °F 30.16 in East 6.0 mph 11.0 mph 43% 0.00 in 0.00 W/m2
22:03 55.2 °F 33.1 °F 30.16 in ESE 5.0 mph 11.0 mph 43% 0.00 in 0.00 W/m2
22:08 55.5 °F 33.4 °F 30.16 in East 6.0 mph 14.0 mph 43% 0.00 in 0.00 W/m2
22:13 55.7 °F 33.0 °F 30.16 in East 8.0 mph 15.0 mph 42% 0.00 in 0.00 W/m2
22:18 55.9 °F 33.2 °F 30.16 in ESE 4.0 mph 14.0 mph 42% 0.00 in 0.00 W/m2
22:23 56.1 °F 32.7 °F 30.17 in ESE 1.0 mph 11.0 mph 41% 0.00 in 0.00 W/m2
22:24 56.1 °F 32.7 °F 30.16 in East 5.0 mph 11.0 mph 41% 0.00 in 0.00 W/m2
22:29 56.3 °F 32.9 °F 30.17 in East 2.0 mph 13.0 mph 41% 0.00 in 0.00 W/m2
22:34 56.4 °F 33.0 °F 30.17 in Calm   12.0 mph 41% 0.00 in 0.00 W/m2
22:39 56.6 °F 33.2 °F 30.17 in ESE 8.0 mph 12.0 mph 41% 0.00 in 0.00 W/m2
22:44 56.7 °F 32.7 °F 30.16 in ESE 1.0 mph 13.0 mph 40% 0.00 in 0.00 W/m2
22:49 56.8 °F 32.8 °F 30.16 in ESE 8.0 mph 14.0 mph 40% 0.00 in 0.00 W/m2
22:54 56.9 °F 32.8 °F 30.16 in ESE 5.0 mph 15.0 mph 40% 0.00 in 0.00 W/m2
22:59 57.0 °F 32.3 °F 30.16 in ESE 5.0 mph 15.0 mph 39% 0.00 in 0.00 W/m2
23:04 57.1 °F 32.4 °F 30.16 in East 1.0 mph 14.0 mph 39% 0.00 in 0.00 W/m2
23:09 57.1 °F 32.4 °F 30.17 in East 7.0 mph 13.0 mph 39% 0.00 in 0.00 W/m2
23:12 57.2 °F 32.5 °F 30.17 in ESE 4.0 mph 14.0 mph 39% 0.00 in 0.00 W/m2
23:17 57.2 °F 31.8 °F 30.17 in East 7.0 mph 7.0 mph 38% 0.00 in 0.00 W/m2
23:22 57.3 °F 31.9 °F 30.17 in Calm   8.0 mph 38% 0.00 in 0.00 W/m2
23:27 57.4 °F 32.0 °F 30.17 in Calm   13.0 mph 38% 0.00 in 0.00 W/m2
23:32 57.4 °F 32.0 °F 30.17 in Calm   11.0 mph 38% 0.00 in 0.00 W/m2
23:37 57.5 °F 32.1 °F 30.17 in East 8.0 mph 14.0 mph 38% 0.00 in 0.00 W/m2
23:42 57.5 °F 32.1 °F 30.17 in ESE 7.0 mph 13.0 mph 38% 0.00 in 0.00 W/m2
23:47 57.5 °F 31.5 °F 30.17 in ESE 5.0 mph 11.0 mph 37% 0.00 in 0.00 W/m2
23:52 57.5 °F 31.5 °F 30.17 in Calm   8.0 mph 37% 0.00 in 0.00 W/m2
23:57 57.5 °F 31.5 °F 30.17 in Calm   6.0 mph 37% 0.00 in 0.00 W/m2
Foresthill Weather
 WU-history PHP script courtesy of   Juneau County Weather.
powered by Cumulus v1.9.3 (1059)
Ambient Weather VWS v14.00
Top Contact Website Map Copyright © 2007 - 2018 Foresthillweather.com Never base important decisions on this or any weather information obtained from the Internet